Weather History for Burlington, IA

Change the Weather History Date:

Saturday, April 13, 2013

  Actual Average Record
Temperature  
Mean Temperature 44 °F 53 °F  
Max Temperature 52 °F 64 °F 87 °F (2006)
Min Temperature 35 °F 42 °F 18 °F (1950)
Degree Days  
Heating Degree Days 21 13  
Month to date heating degree days 223 191  
Since 1 July heating degree days 5549 5297  
Cooling Degree Days 0 1  
Month to date cooling degree days 0 3  
Year to date cooling degree days 0 5  
Moisture  
Dew Point 29 °F    
Average Humidity 62    
Maximum Humidity 75    
Minimum Humidity 48    
Precipitation  
Precipitation T in 0.12 in 1.59 in (1998)
Month to date precipitation 1.87 1.41  
Year to date precipitation 7.79 7.06  
Sea Level Pressure  
Sea Level Pressure 29.96 in    
Wind  
Wind Speed 9 mph (West)    
Max Wind Speed 20 mph    
Max Gust Speed 23 mph    
Visibility 10 miles    
Events      
T = Trace of Precipitation, MM = Missing Value Source: NWS Daily Summary

Daily Weather History Graph

Daily Weather History Graph

Search for Another Location

Airport:

Trip Planner

Search our weather history database for the weather conditions in past years. The results will help you decide how hot, cold, wet, or windy it might be!

Date:

Astronomy

Apr. 13, 2013 Rise Set
Actual Time 6:28 AM CDT 7:42 PM CDT
Civil Twilight 6:00 AM CDT 8:10 PM CDT
Nautical Twilight 5:26 AM CDT 8:44 PM CDT
Astronomical Twilight 4:50 AM CDT 9:20 PM CDT
Moon 8:19 AM CDT (4/13) 11:07 PM CDT (4/13)
Length of Visible Light 14h 10m
Length of Day
13h 13m
Waxing Crescent, 10% of the Moon is Illuminated
Apr 13
Waxing Crescent
Apr 18
First Quarter
Apr 25
Full
May 2
Last Quarter
May 9
New

Hourly Weather History & Observations

Time (CDT) Temp. Windchill Dew Point Humidity Pressure Visibility Wind Dir Wind Speed Gust Speed Precip Events Conditions
12:53 AM 39.0 °F 33.4 °F 28.9 °F 67% 29.96 in 10.0 mi West 8.1 mph - N/A   Overcast
1:53 AM 37.9 °F 30.5 °F 28.0 °F 68% 29.95 in 10.0 mi West 11.5 mph 17.3 mph N/A   Overcast
2:45 AM 37.4 °F 31.4 °F 28.4 °F 70% 29.94 in 10.0 mi WNW 8.1 mph - N/A   Overcast
2:53 AM 37.0 °F 31.0 °F 28.0 °F 70% 29.95 in 10.0 mi WNW 8.1 mph - N/A   Overcast
3:53 AM 36.0 °F 31.1 °F 28.0 °F 73% 29.96 in 10.0 mi WNW 5.8 mph - N/A   Overcast
4:23 AM 35.6 °F 29.2 °F 26.6 °F 70% 29.95 in 10.0 mi WNW 8.1 mph 20.7 mph N/A   Overcast
4:53 AM 36.0 °F 29.0 °F 25.0 °F 64% 29.97 in 10.0 mi WNW 9.2 mph - N/A   Overcast
5:29 AM 35.6 °F 28.6 °F 26.6 °F 70% 29.95 in 10.0 mi WNW 9.2 mph 17.3 mph N/A   Overcast
5:41 AM 35.6 °F 28.0 °F 24.8 °F 65% 29.95 in 10.0 mi WNW 10.4 mph - N/A   Overcast
5:53 AM 35.1 °F 27.4 °F 24.1 °F 64% 29.97 in 10.0 mi WNW 10.4 mph 18.4 mph N/A   Overcast
6:53 AM 35.1 °F 29.3 °F 24.1 °F 64% 29.99 in 10.0 mi WNW 6.9 mph - N/A   Overcast
7:53 AM 36.0 °F 30.3 °F 26.1 °F 67% 30.01 in 10.0 mi West 6.9 mph - N/A   Mostly Cloudy
8:53 AM 37.9 °F 31.5 °F 25.0 °F 60% 30.01 in 10.0 mi NW 9.2 mph 21.9 mph N/A   Clear
9:53 AM 39.9 °F 33.4 °F 25.0 °F 55% 30.02 in 10.0 mi NW 10.4 mph 18.4 mph N/A   Clear
10:53 AM 42.1 °F 34.2 °F 27.0 °F 55% 30.02 in 10.0 mi West 16.1 mph 20.7 mph N/A   Clear
11:53 AM 45.0 °F 38.5 °F 28.9 °F 53% 30.02 in 10.0 mi WNW 13.8 mph 21.9 mph N/A   Partly Cloudy
12:53 PM 46.9 °F - 30.9 °F 54% 30.00 in 10.0 mi West 11.5 mph 20.7 mph N/A   Clear
1:53 PM 48.9 °F - 32.0 °F 52% 29.99 in 10.0 mi WSW 11.5 mph 19.6 mph N/A   Clear
2:53 PM 50.0 °F - 33.1 °F 52% 29.98 in 10.0 mi West 10.4 mph 19.6 mph N/A   Clear
3:53 PM 52.0 °F - 34.0 °F 50% 29.96 in 10.0 mi WSW 13.8 mph 19.6 mph N/A   Partly Cloudy
4:53 PM 51.1 °F - 32.0 °F 48% 29.94 in 10.0 mi West 9.2 mph - N/A   Overcast
5:53 PM 51.1 °F - 32.0 °F 48% 29.94 in 10.0 mi WSW 6.9 mph - N/A   Overcast
6:53 PM 50.0 °F - 33.1 °F 52% 29.92 in 10.0 mi South 3.5 mph - N/A   Overcast
7:53 PM 46.0 °F 44.8 °F 34.0 °F 63% 29.92 in 10.0 mi SSE 3.5 mph - N/A   Mostly Cloudy
8:53 PM 48.0 °F - 34.0 °F 58% 29.92 in 10.0 mi ESE 3.5 mph - N/A   Overcast
9:53 PM 48.0 °F - 34.0 °F 58% 29.91 in 10.0 mi ESE 6.9 mph - N/A   Overcast
10:53 PM 48.0 °F - 36.0 °F 63% 29.91 in 10.0 mi East 5.8 mph - N/A   Overcast
11:53 PM 48.0 °F - 35.1 °F 61% 29.91 in 10.0 mi ESE 5.8 mph - N/A   Overcast